CAPE
208 592 698 639 870 847 1097 1312 713 320 582 1013 966 769 702 850 791 471 168 18 20 0 3 16 17 29 8 55 47 42 52 19 48 73 76 106 176 169 52 0 41 156 13
247 692 794 514 599 1055 858 1204 704 411 420 787 946 643 651 774 778 655 354 105 33 8 5 101 169 142 9 1 16 31 48 40 0 0 0 60 149 125 37 0 56 149 152
338 684 723 556 438 929 957 931 736 619 606 761 978 578 463 753 754 516 195 118 26 5 6 10 145 330 299 148 70 3 0 0 0 0 0 70 104 96 129 131 119 130 162
24 370 598 513 409 432 1011 1030 732 694 531 704 839 675 398 457 765 398 320 292 132 25 0 2 9 160 230 93 105 48 29 31 0 0 42 103 198 222 203 111 36 20 5
0 90 399 550 583 257 716 822 836 730 470 638 541 600 354 404 355 433 597 310 312 188 68 0 0 23 90 25 37 57 38 23 5 0 38 85 125 149 74 14 2 3 1
0 0 0 417 680 376 91 678 711 546 432 443 446 276 352 515 733 912 438 288 461 250 92 1 2 0 0 6 43 20 19 34 9 0 22 57 44 62 8 4 3 0 0
0 0 0 162 751 464 321 149 480 558 525 459 547 302 370 503 1047 720 295 256 258 179 105 40 2 0 0 7 33 0 35 26 23 0 0 6 17 30 4 4 0 0 0
0 0 0 0 276 695 383 348 173 448 479 487 404 480 507 663 579 660 277 146 110 154 40 5 5 0 0 39 28 5 26 11 5 0 0 0 0 2 4 3 0 1 4
0 0 0 0 0 304 729 365 398 265 514 407 446 525 294 371 484 492 221 125 40 17 1 2 5 0 0 52 8 25 8 0 0 0 1 0 5 5 1 1 3 6 1
0 0 0 0 0 0 162 590 414 350 211 399 423 353 256 261 297 170 82 5 0 0 0 0 1 4 0 59 0 16 0 1 4 0 1 0 0 5 2 16 40 54 40
0 0 0 0 0 0 0 174 484 491 287 341 353 280 238 222 160 26 3 0 0 0 0 0 1 11 51 8 22 0 0 0 0 0 0 0 0 6 9 33 42 36 42
0 0 0 0 0 0 0 0 44 373 437 342 284 260 251 102 10 0 0 0 0 0 0 0 0 36 16 11 7 0 4 0 0 0 0 0 3 7 26 53 37 17 31
0 0 0 0 0 0 0 0 0 214 267 330 274 216 103 1 0 0 0 0 0 0 0 0 31 14 15 6 0 0 0 0 0 0 0 1 9 10 31 46 35 34 17
0 0 0 0 0 0 0 0 0 0 279 252 232 154 1 0 0 0 0 0 0 0 0 0 5 5 13 5 0 0 0 0 0 0 0 5 7 38 56 38 19 28 21
0 0 0 0 0 0 0 0 0 0 0 0 68 28 4 0 0 0 0 0 0 0 0 0 1 2 7 10 0 1 0 0 0 0 0 1 16 45 44 20 23 26 13
0 0 0 0 0 0 0 0 0 0 0 0 0 0 0 0 0 0 0 0 0 0 0 0 0 0 0 6 0 3 0 0 0 0 0 7 14 14 18 19 20 24 17
0 0 0 0 0 0 0 0 0 0 0 0 0 0 0 0 1 0 0 0 0 0 0 0 0 0 0 5 0 0 0 0 0 0 0 0 0 2 7 13 8 7 10
0 0 0 0 0 0 0 0 0 0 0 0 0 0 0 0 0 0 0 0 0 0 0 0 0 3 0 0 0 0 0 0 0 0 0 0 0 2 9 9 2 4 7
0 0 0 0 0 0 0 0 0 0 0 0 0 0 0 0 0 0 0 0 0 0 0 0 0 0 0 0 0 0 0 0 0 0 0 0 0 0 1 4 3 1 3
0 0 0 0 0 0 0 0 0 0 1 0 0 0 0 0 0 1 0 0 0 0 0 1 1 1 0 0 0 0 0 0 0 0 0 0 0 0 0 0 0 0 1
0 0 0 0 0 0 1 0 0 0 0 0 2 0 0 0 0 1 0 0 0 0 0 1 0 0 0 0 0 0 0 0 0 0 0 0 0 0 0 0 0 0 0
0 0 0 0 0 0 0 1 0 0 0 10 9 0 0 0 0 0 0 0 0 0 0 0 0 0 0 0 0 0 0 0 0 0 0 0 0 0 0 0 0 0 0
0 0 0 0 0 0 0 1 0 0 0 0 5 0 2 0 0 0 0 0 0 0 0 0 0 0 0 0 0 0 0 0 0 0 0 0 0 0 0 0 0 0 0
0 0 0 3 0 0 0 2 1 0 0 0 0 0 0 0 0 0 1 0 0 0 0 0 0 0 0 0 0 0 0 0 0 0 0 0 0 0 0 0 0 0 0
0 3 0 0 0 0 34 5 0 1 0 0 0 0 0 0 0 0 0 0 0 0 0 0 0 0 0 0 0 0 0 0 0 0 0 0 0 0 0 0 0 0 0
1 5 2 0 0 10 9 1 0 0 2 1 2 0 1 1 1 0 0 0 0 0 0 0 0 0 0 0 0 0 0 0 0 0 0 0 0 0 0 0 0 0 0
CIN
-160 -51 -25 -38 -10 -6 -3 -0 -6 -51 -5 -0 -0 -5 -9 -6 -4 -16 -72 -177 -177 -0 -0 -193 -185 -201 -84 -216 -247 -265 -261 -338 -295 -255 -241 -217 -165 -174 -215 -0 -301 -178 -59
-146 -48 -16 -53 -46 -3 -6 -0 -11 -34 -23 -1 -0 -9 -9 -1 -0 -0 -17 -87 -134 -179 -0 -113 -98 -129 -142 -0 -325 -318 -306 -328 -0 -0 -0 -261 -183 -208 -326 -0 -303 -208 -185
-107 -40 -29 -31 -63 -9 -3 -4 -9 -7 -9 -2 -0 -8 -15 -0 -0 -0 -48 -70 -165 -0 -0 -0 -113 -62 -88 -177 -255 -1 -0 -0 -0 -0 -0 -280 -228 -233 -218 -202 -217 -220 -181
-57 -63 -23 -34 -41 -43 -6 -1 -8 -8 -9 -5 -2 -3 -15 -8 -0 -5 -12 -25 -62 -140 -0 -0 -0 -124 -119 -233 -234 -301 -8 -5 -0 -0 -332 -254 -167 -161 -167 -227 -338 -209 -3
-0 -130 -40 -18 -18 -61 -23 -8 -4 -6 -16 -5 -9 -1 -21 -10 -18 -5 -0 -29 -23 -62 -124 -0 -0 -239 -200 -44 -116 -268 -7 -10 -15 -0 -348 -286 -211 -187 -281 -125 -6 -0 -0
-0 -0 -0 -44 -14 -28 -129 -21 -7 -10 -13 -7 -7 -23 -13 -2 -0 -0 -15 -43 -14 -44 -119 -0 -0 -0 -0 -14 -7 -13 -22 -27 -30 -0 -26 -320 -327 -321 -8 -0 -0 -0 -0
-0 -0 -0 -104 -11 -7 -22 -74 -20 -11 -9 -12 -6 -14 -15 -2 -0 -0 -53 -71 -67 -83 -113 -187 -0 -0 -0 -10 -7 -0 -24 -44 -37 -0 -0 -20 -2 -4 -0 -0 -0 -0 -0
-0 -0 -0 -0 -104 -6 -11 -11 -31 -20 -12 -8 -11 -4 -4 -1 -4 -0 -66 -139 -131 -106 -160 -0 -0 -0 -0 -3 -6 -16 -23 -39 -48 -0 -0 -0 -0 -0 -0 -0 -0 -0 -0
-0 -0 -0 -0 -0 -65 -4 -6 -6 -15 -14 -10 -7 -6 -7 -5 -3 -15 -94 -159 -203 -40 -0 -0 -0 -0 -0 -0 -15 -18 -20 -0 -0 -0 -27 -0 -0 -1 -0 -0 -0 -0 -0
-0 -0 -0 -0 -0 -0 -109 -9 -5 -7 -24 -21 -9 -7 -8 -9 -16 -95 -201 -302 -0 -0 -0 -0 -0 -0 -0 -1 -0 -18 -0 -65 -76 -0 -38 -0 -0 -0 -0 -0 -0 -0 -0
-0 -0 -0 -0 -0 -0 -0 -93 -18 -5 -9 -13 -19 -8 -13 -13 -52 -198 -160 -0 -0 -0 -0 -0 -0 -0 -2 -16 -13 -0 -0 -8 -0 -0 -0 -0 -0 -0 -0 -0 -0 -0 -0
-0 -0 -0 -0 -0 -0 -0 -0 -70 -25 -8 -13 -21 -20 -14 -62 -242 -0 -0 -0 -0 -0 -0 -0 -0 -3 -13 -24 -28 -0 -34 -15 -0 -0 -0 -0 -0 -0 -0 -0 -0 -2 -0
-0 -0 -0 -0 -0 -0 -0 -0 -0 -43 -28 -15 -16 -23 -35 -28 -0 -0 -0 -0 -0 -0 -0 -0 -2 -10 -16 -27 -0 -0 -0 -0 -0 -0 -0 -1 -1 -0 -0 -0 -0 -0 -0
-0 -0 -0 -0 -0 -0 -0 -0 -0 -0 -11 -8 -14 -21 -51 -0 -0 -0 -0 -0 -0 -0 -0 -0 -7 -14 -16 -18 -0 -0 -0 -0 -0 -0 -0 -3 -0 -0 -0 -0 -0 -0 -0
-0 -0 -0 -0 -0 -0 -0 -0 -0 -0 -0 -0 -24 -37 -50 -0 -0 -0 -0 -0 -0 -0 -0 -0 -11 -7 -20 -24 -0 -38 -0 -0 -0 -0 -0 -0 -5 -2 -1 -4 -1 -2 -1
-0 -0 -0 -0 -0 -0 -0 -0 -0 -0 -0 -0 -0 -0 -0 -0 -0 -0 -0 -0 -0 -0 -0 -0 -0 -0 -0 -28 -0 -57 -0 -0 -0 -0 -0 -1 -5 -10 -6 -3 -2 -2 -1
-0 -0 -0 -0 -0 -0 -0 -0 -0 -0 -0 -0 -0 -0 -0 -0 -0 -0 -0 -0 -0 -0 -0 -0 -0 -0 -0 -50 -3 -0 -0 -0 -0 -0 -0 -0 -4 -6 -3 -1 -0 -2 -1
-0 -0 -0 -0 -0 -0 -0 -0 -0 -0 -0 -0 -0 -0 -0 -0 -0 -0 -0 -0 -0 -0 -0 -0 -0 -37 -0 -0 -0 -0 -0 -0 -0 -0 -0 -0 -0 -8 -2 -0 -1 -0 -0
-0 -0 -0 -0 -0 -0 -0 -0 -0 -0 -0 -0 -0 -0 -0 -0 -0 -0 -0 -0 -0 -0 -0 -0 -0 -0 -0 -0 -0 -0 -0 -0 -0 -0 -0 -0 -0 -0 -12 -5 -0 -0 -0
-0 -0 -0 -0 -0 -0 -0 -0 -0 -0 -0 -0 -0 -0 -0 -0 -0 -0 -0 -0 -0 -0 -0 -30 -13 -68 -0 -0 -0 -0 -0 -0 -0 -0 -0 -0 -0 -0 -0 -0 -0 -0 -1
-0 -0 -0 -0 -0 -0 -0 -0 -0 -0 -0 -0 -15 -0 -0 -0 -0 -0 -0 -0 -0 -0 -0 -21 -0 -0 -0 -0 -0 -0 -0 -0 -0 -0 -0 -0 -0 -0 -0 -0 -0 -0 -0
-0 -0 -0 -0 -0 -0 -0 -0 -1 -0 -5 -11 -17 -1 -0 -0 -0 -0 -0 -0 -0 -0 -0 -0 -0 -0 -0 -0 -0 -0 -0 -0 -0 -0 -0 -0 -0 -0 -0 -0 -0 -0 -0
-0 -0 -0 -0 -3 -0 -0 -0 -0 -0 -0 -2 -26 -2 -3 -0 -0 -0 -0 -0 -0 -0 -0 -0 -0 -0 -0 -0 -0 -0 -0 -0 -0 -0 -0 -0 -0 -0 -0 -0 -0 -0 -0
-0 -11 -0 -1 -0 -0 -0 -0 -0 -0 -0 -0 -5 -0 -0 -0 -0 -0 -0 -0 -0 -0 -0 -0 -0 -0 -0 -0 -0 -0 -0 -0 -0 -0 -0 -0 -0 -0 -0 -0 -0 -0 -0
-0 -42 -0 -0 -0 -0 -0 -4 -0 -0 -0 -0 -0 -0 -0 -0 -0 -0 -0 -0 -0 -0 -0 -0 -0 -0 -0 -0 -0 -0 -0 -0 -0 -0 -0 -0 -0 -0 -0 -0 -0 -0 -0
-14 -37 -33 -0 -18 -23 -5 -2 -0 -0 -0 -0 -0 -0 -0 -0 -0 -0 -16 -0 -0 -0 -0 -0 -0 -0 -0 -0 -0 -0 -0 -0 -0 -0 -0 -0 -0 -0 -0 -0 -0 -0 -0
Wind_Speed
11 9 8 8 6 5 6 3 3 3 3 3 3 4 5 7 8 8 7 6 7 7 5 4 4 3 4 6 8 11 10 11 14 14 12 15 22 23 22 22 21 21 23
9 7 7 8 6 7 5 4 2 3 2 2 1 2 3 5 6 6 6 6 6 6 4 2 2 4 5 6 8 10 11 12 14 14 15 16 20 20 21 22 22 21 21
10 7 7 8 8 8 8 6 5 3 1 1 1 1 1 2 4 4 4 4 3 3 2 1 2 3 3 6 8 10 12 12 12 12 16 19 19 20 20 21 20 20 18
14 10 11 9 10 8 11 8 5 5 3 1 2 2 3 1 1 3 4 3 3 2 1 1 2 3 2 4 7 11 13 12 12 9 12 18 19 21 21 20 19 18 17
17 15 16 13 10 10 9 11 8 7 6 6 4 4 5 4 2 1 4 3 2 3 1 1 2 4 4 1 5 5 5 7 7 11 14 16 18 18 17 17 17 18 18
18 19 22 15 12 12 9 10 12 11 10 10 9 8 8 8 5 3 3 3 4 2 1 1 4 4 4 2 2 3 6 4 11 11 12 13 14 15 15 14 15 16 16
20 22 22 21 18 15 15 12 12 15 13 13 12 10 9 10 9 7 5 5 3 3 2 4 5 5 5 4 2 3 3 7 11 10 9 10 11 11 12 13 14 15 16
20 22 23 23 23 20 17 18 15 16 18 16 15 14 12 12 9 7 7 7 5 5 7 6 6 5 7 6 3 4 4 6 7 7 6 7 8 10 10 12 14 15 16
20 22 23 25 25 25 24 20 20 19 20 21 18 17 18 15 10 9 9 10 10 11 11 9 7 6 7 7 5 2 4 5 4 5 5 5 7 8 10 12 14 15 17
20 21 21 23 23 24 27 28 24 23 22 21 22 20 18 15 12 10 12 13 13 13 13 12 10 9 9 8 7 3 4 4 3 3 4 5 7 8 10 12 15 16 17
24 22 21 23 23 24 25 25 28 27 26 25 24 22 18 18 16 12 14 15 14 12 13 12 12 11 8 6 5 4 2 2 1 2 3 5 7 9 12 12 14 16 17
26 24 22 22 23 23 24 26 28 30 28 29 27 24 21 21 19 17 15 17 16 14 13 13 14 11 11 8 6 4 5 3 3 3 3 4 6 9 11 12 13 15 16
27 25 20 21 21 23 24 25 27 28 30 29 28 26 24 24 21 19 18 19 18 17 15 14 15 14 14 11 9 6 5 6 5 3 3 2 4 7 8 10 11 13 14
30 27 21 19 21 22 23 25 25 26 27 30 30 28 28 28 25 23 22 20 20 21 18 16 17 16 17 15 11 9 8 7 6 3 2 3 2 6 9 8 9 11 13
31 28 20 19 21 21 23 24 24 24 24 26 29 31 31 32 30 26 25 23 22 22 19 18 18 19 20 17 14 10 9 7 6 4 3 1 1 2 4 6 8 10 11
31 28 20 19 20 22 23 23 24 23 24 24 27 27 28 35 35 30 27 26 24 23 21 20 19 19 21 19 16 13 10 8 6 4 4 2 2 1 3 5 7 9 10
31 27 20 19 20 22 23 22 25 27 28 30 32 33 34 34 39 34 30 28 27 24 22 21 19 19 20 20 16 14 11 8 6 4 5 4 4 3 2 3 5 6 8
28 24 19 19 19 22 23 22 26 29 33 36 40 43 43 39 41 37 32 30 28 26 24 23 22 22 20 18 16 14 12 9 7 7 5 6 6 6 3 3 3 5 6
27 24 19 19 20 21 23 26 27 28 31 32 36 40 46 43 40 43 34 30 30 28 27 26 25 23 21 18 16 15 12 11 9 9 8 6 6 5 5 4 4 5 6
27 24 18 18 19 22 25 25 27 30 31 31 36 38 42 41 39 41 33 32 31 30 28 28 25 23 21 19 17 16 14 13 11 10 10 9 7 7 6 5 6 6 6
25 21 18 14 16 18 23 26 28 33 33 33 37 36 39 39 39 45 37 35 33 33 30 29 26 24 22 19 17 16 16 15 13 12 12 12 11 10 9 7 7 6 7
21 18 15 12 14 19 18 23 26 30 31 32 32 33 35 35 37 42 42 39 35 33 31 30 28 26 25 22 22 19 20 19 19 16 14 13 12 11 10 10 9 8 7
18 17 11 10 12 11 12 15 21 27 29 31 31 32 34 33 29 34 38 36 35 33 32 31 29 28 27 26 22 23 23 25 19 20 19 16 14 13 12 10 9 9 8
17 14 13 9 12 17 12 12 16 25 29 31 32 32 31 31 32 32 37 36 34 33 31 30 29 27 27 26 24 22 22 19 22 22 21 19 16 15 13 12 12 11 10
15 12 11 10 12 16 8 10 14 22 29 28 26 35 36 34 26 32 33 37 33 33 30 30 29 27 26 26 26 24 22 21 19 21 23 21 20 18 15 14 13 12 10
16 12 10 7 12 13 7 8 15 13 17 10 20 28 36 36 37 32 34 36 32 30 31 29 28 27 26 26 25 24 23 22 22 21 22 21 21 20 17 16 14 13 12
Wind_Direction
1 31 25 28 338 354 318 12 30 37 38 29 54 64 69 82 85 81 73 66 62 58 44 33 31 354 11 28 42 50 50 53 57 54 44 49 74 72 67 64 59 55 61
14 28 25 18 353 318 323 307 329 49 52 44 13 55 69 79 85 82 76 75 67 63 47 15 347 22 30 39 48 55 59 59 59 58 59 53 71 65 69 70 68 60 54
0 355 354 353 350 309 301 298 286 297 68 48 291 292 50 77 89 83 78 80 67 51 48 2 307 343 20 51 56 64 66 61 56 53 66 72 70 70 70 71 61 55 45
352 334 317 324 327 316 289 289 274 268 265 267 254 258 263 242 102 96 100 101 87 85 75 320 298 288 315 44 60 73 74 64 58 36 49 81 75 76 70 63 54 43 38
336 337 310 302 306 308 293 279 272 261 261 264 257 260 256 255 251 155 131 128 133 116 97 324 298 270 269 349 59 43 34 53 38 51 54 63 73 67 58 53 44 42 42
323 319 315 299 289 291 291 278 271 264 259 263 264 263 256 256 242 229 212 161 151 156 117 299 276 268 259 270 9 340 281 39 81 66 57 57 56 54 48 41 33 30 31
319 316 311 305 289 282 281 280 267 264 260 260 260 259 255 253 252 244 225 188 177 216 255 277 270 263 255 253 287 307 17 63 84 72 59 52 41 37 34 30 29 29 28
321 317 309 307 296 282 275 275 271 262 262 259 257 258 257 255 240 219 221 216 228 244 262 273 267 256 249 248 266 279 74 74 73 66 43 32 29 16 20 19 29 33 37
322 319 313 304 298 286 276 269 269 264 260 259 256 256 257 251 222 222 227 236 246 256 262 266 260 247 243 243 249 101 96 82 61 51 39 15 22 18 21 32 44 47 50
321 320 317 315 304 293 283 271 266 265 260 256 256 256 253 239 221 231 245 247 247 252 259 260 252 246 239 238 242 140 114 87 58 26 9 9 17 20 42 54 64 51 47
310 314 314 312 307 298 290 281 269 263 259 255 254 252 244 239 234 239 251 250 244 246 253 254 247 241 232 223 167 157 220 254 357 316 318 13 32 51 70 57 59 58 52
308 310 308 308 307 300 293 285 277 266 260 255 253 248 242 237 240 243 250 248 244 243 248 247 242 234 232 220 203 208 240 243 263 288 335 19 45 62 74 62 58 59 53
310 308 308 307 306 300 293 287 279 272 262 254 250 244 241 241 241 244 250 249 244 242 244 239 239 238 230 222 222 223 227 244 250 281 315 348 31 69 69 68 60 57 55
310 307 304 304 303 301 295 286 281 273 266 257 249 243 241 241 241 244 247 245 240 241 239 239 240 236 229 227 225 224 233 241 248 280 308 285 43 73 88 65 56 56 55
314 311 300 298 299 300 295 287 280 274 266 263 251 246 244 242 241 243 245 244 238 237 236 235 236 234 228 227 228 228 231 231 242 260 281 261 334 41 63 49 49 60 51
318 314 306 295 297 297 294 287 277 273 266 256 254 246 255 249 239 239 239 240 237 234 235 235 234 225 226 227 230 231 229 231 237 253 259 248 264 346 25 35 50 44 49
319 318 309 298 297 295 294 288 279 272 266 260 254 250 252 253 247 233 234 235 235 232 232 232 227 223 225 230 231 229 226 226 236 245 245 253 263 289 321 4 34 33 39
324 321 313 304 298 296 293 289 281 275 269 263 258 253 252 259 254 230 228 231 232 230 228 228 223 223 225 226 226 223 223 228 237 242 240 254 266 278 296 342 19 21 28
329 326 314 303 296 293 292 289 283 278 271 267 259 254 250 252 254 230 223 225 227 228 226 225 225 225 223 223 219 222 227 232 238 242 242 245 257 271 293 315 341 2 13
334 331 321 305 298 293 292 289 283 275 269 268 259 255 249 247 249 238 224 223 221 226 224 223 224 226 221 220 221 227 234 239 242 241 239 246 253 264 278 295 312 327 347
339 335 328 317 307 299 295 286 280 271 269 266 258 255 250 245 244 237 226 222 220 222 220 220 223 219 221 214 219 230 242 248 247 246 247 252 258 265 272 281 295 311 324
346 343 336 324 315 304 296 289 280 273 269 264 257 252 247 242 236 239 233 220 218 221 219 217 219 221 225 220 227 232 242 252 255 254 254 255 259 266 271 276 284 294 307
352 348 344 336 331 323 295 290 282 273 270 260 256 250 246 239 235 237 234 222 216 218 218 217 216 221 221 232 220 243 246 253 247 257 257 258 259 264 271 274 280 288 296
355 358 350 353 337 323 285 278 277 270 267 259 255 249 241 240 230 234 234 225 219 218 218 217 218 221 221 223 233 245 255 258 253 257 261 261 262 263 265 271 275 282 290
4 9 359 349 346 344 293 222 270 277 263 261 259 245 238 233 233 229 233 225 217 218 217 217 221 221 223 229 233 243 252 260 263 264 259 258 265 266 267 269 273 277 283
7 13 8 8 4 4 342 271 200 205 282 259 252 242 232 231 227 232 229 232 219 218 218 221 223 224 228 231 236 242 248 255 260 267 270 260 260 267 269 273 275 278 282